[[{"header":{"parameterUnit":"m.s-1","parameterCategory":1,"la1":30.2991,"la2":30.254,"lo1":-89.0895,"lo2":-89.0444,"dy":0.0017,"dx":0.0017,"nx":28,"ny":28,"refTime":"2025-04-15T09:00:00:Z","depth":0,"parameterNumber":2,"parameterNumberName":"U-component_of_WINDS"},"data":[0,0,0,0,0,0,0,0,0,0,0,0,0,0,0,0,0,0,0,0,0,0,0,0,0,0,0,0,0,0,0,0,0,0,0,0,0,0,0,0,0,0,0,0,0,0,0,0,0,0,0,0,0,0,0,0,0,0,0.0655,0.0654,0,0.0627,0.0627,0.0627,0.0659,0.066,0.0661,0.0663,0.0631,0.0629,0.0627,0,0,0,0,0,0,0,0,0,0,0,0,0,0.0731,0.0729,0.0655,0.0654,0.0654,0.0628,0.0627,0.0627,0.0659,0.066,0.0662,0.0663,0.0632,0.0629,0.0627,0,0,0,0,0,0,0,0,0,0,0,0,0,0.07,0.0729,0.0655,0.0667,0.0668,0.0628,0.0627,0.0627,0.0658,0.066,0.0662,0.0664,0.0632,0.0629,0.0626,0.0572,0,0,0.0617,0.0616,0,0,0,0,0,0,0,0,0.0702,0.0697,0.0665,0.0666,0.0667,0.0649,0.0642,0.0608,0.0658,0.0662,0.0663,0.0665,0.0635,0.0632,0.0623,0.057,0.0569,0.0617,0.0615,0.0614,0.0613,0,0,0,0,0,0,0,0.0704,0.0698,0.0644,0.0665,0.0666,0.0673,0.067,0.0636,0.0638,0.0662,0.0664,0.066,0.0636,0.0626,0.0622,0.0569,0.0617,0.0615,0.0613,0.0612,0.0469,0.0467,0,0,0,0,0,0,0.0705,0.07,0.0645,0.0643,0.0689,0.067,0.0667,0.0652,0.0639,0.0639,0.0659,0.0662,0.063,0.0626,0.0621,0.0555,0.0614,0.0611,0.061,0.0471,0.0469,0.0467,0,0,0,0,0,0,0.0707,0.07,0.0646,0.0672,0.0666,0.0666,0.065,0.0651,0.0641,0.0637,0.0637,0.0648,0.0631,0.0625,0.0584,0.0555,0.061,0.0607,0.0474,0.0471,0.0468,0.0424,0,0,0,0,0,0,0.0709,0.07,0.068,0.0672,0.0664,0.061,0.0648,0.0649,0.0636,0.064,0.0627,0.0627,0.0632,0.0588,0.0581,0.0552,0.0605,0.0476,0.0472,0.0469,0.0428,0.042,0.0413,0,0,0,0,0,0.0711,0.0668,0.0679,0.0672,0.064,0.0608,0.0604,0.0612,0.0634,0.0613,0.061,0.0627,0.056,0.0584,0.0576,0.0545,0.0478,0.0473,0.0469,0.0431,0.0421,0.0413,0,0,0,0,0,0,0.0672,0.0667,0.0679,0.0633,0.0621,0.0614,0.0588,0.0601,0.0582,0.0586,0.0596,0.0593,0.0549,0.0543,0.057,0.0491,0.0522,0.0516,0.0496,0.0487,0.0479,0.0481,0.0603,0,0,0,0,0,0.0659,0.0635,0.0631,0.059,0.0584,0.0587,0.0573,0.0581,0.0568,0.0563,0.0558,0.0544,0.052,0.0503,0.0481,0.0428,0.0425,0.0403,0.0396,0.0389,0.0383,0.0354,0.0343,0.0452,0.0452,0.0452,0,0,0.0629,0.0624,0.0608,0.0582,0.0574,0.0548,0.0582,0.0553,0.0533,0.0558,0.0519,0.0514,0.05,0.0452,0.0431,0.0446,0.0353,0.0384,0.0379,0.0376,0.0348,0.0338,0.0328,0.0449,0.0449,0.045,0,0,0.0562,0.0556,0.0521,0.0512,0.05,0.0502,0.0494,0.0485,0.0483,0.0444,0.0462,0.0438,0.0397,0.0385,0.0374,0.0303,0.0316,0.0295,0.0255,0.0226,0.0217,0.021,0.0183,0.0173,0.0289,0.0289,0.0289,0,0.0527,0.0489,0.0501,0.047,0.0458,0.0481,0.0445,0.0435,0.0415,0.0406,0.0424,0.0372,0.0364,0.0313,0.0296,0.0286,0.0276,0.0296,0.0218,0.021,0.0203,0.0178,0.0168,0.0287,0.0287,0.0287,0.0287,0,0.0445,0.0419,0.0392,0.0373,0.0358,0.0325,0.033,0.0313,0.0322,0.0322,0.0282,0.0273,0.0249,0.0238,0.0246,0.0188,0.0198,0.0217,0.0247,0.019,0.0166,0.0157,0.0283,0.0284,0.0285,0.0285,0,0,0.0351,0.034,0.033,0.0321,0.031,0.0289,0.0256,0.0234,0.0218,0.0204,0.0176,0.014,0.0158,0.0145,0.0152,0.0127,0.0069,0.0149,0.0149,0.0133,0.0003,-0.0012,-0.0024,0.008,0.0078,0.0076,0.0004,0,0.0283,0.0227,0.0237,0.0182,0.0157,0.0179,0.0151,0.014,0.0139,0.0117,0.0116,0.009,0.0116,0.0108,0.0084,0.0081,0.0043,0.0087,0.0051,0.005,0.0052,-0.0036,-0.0053,-0.0121,-0.0005,-0.0007,-0.0008,0,0.0195,0.0178,0.0121,0.0113,0.0103,0.0077,0.0057,0.0036,0.0024,0.0025,0.0011,0.0023,-0.0011,0.0022,-0.0025,0.0004,-0.0009,-0.0013,-0.0016,-0.002,0.0016,-0.0045,-0.0142,-0.0153,-0.0022,-0.0021,-0.002,0,0.0129,0.0093,0.0054,0.0047,0.0037,0.0018,0.0012,0.0002,-0.0012,-0.003,-0.0039,-0.0061,-0.0074,-0.0091,-0.0086,-0.0062,-0.0135,-0.0101,-0.0137,-0.0137,-0.0155,-0.0155,-0.0258,-0.0161,-0.016,-0.016,-0.016,0,0.0051,0.0014,0.0025,0.0001,-0.004,-0.0028,-0.0068,-0.0071,-0.008,-0.0106,-0.0087,-0.0112,-0.0102,-0.0127,-0.0123,-0.0164,-0.0169,-0.017,-0.0169,-0.0173,-0.0173,-0.0184,-0.018,-0.0163,-0.0162,-0.0162,-0.0161,0,-0.003,-0.0024,-0.0066,-0.0071,-0.0073,-0.0103,-0.0108,-0.0132,-0.013,-0.0163,-0.017,-0.0168,-0.0195,-0.0191,-0.0222,-0.0219,-0.0271,-0.0263,-0.0267,-0.0266,-0.0302,-0.03,-0.0417,-0.0433,-0.0324,-0.0325,-0.0326,0,-0.0082,-0.0109,-0.0117,-0.0132,-0.0139,-0.0163,-0.0177,-0.0167,-0.0183,-0.0198,-0.022,-0.0246,-0.0266,-0.0311,-0.0314,-0.0337,-0.0331,-0.0371,-0.0335,-0.0338,-0.0334,-0.0334,-0.0337,-0.0379,-0.038,-0.0381,-0.0382,0,-0.0175,-0.0171,-0.0191,-0.0211,-0.0228,-0.0243,-0.0257,-0.0271,-0.0261,-0.028,-0.0307,-0.0323,-0.0354,-0.038,-0.0402,-0.0409,-0.0395,-0.0392,-0.0402,-0.0408,-0.041,-0.0411,-0.0288,-0.0391,-0.039,-0.0389,-0.0388,-0.0388,-0.0244,-0.0268,-0.0277,-0.0301,-0.031,-0.0323,-0.0345,-0.0346,-0.0368,-0.0392,-0.0384,-0.0416,-0.0428,-0.0456,-0.0465,-0.049,-0.0476,-0.049,-0.0493,-0.0498,-0.0503,-0.0403,-0.0494,-0.0493,-0.0493,-0.0493,-0.0493,0,-0.0338,-0.0343,-0.0365,-0.0384,-0.0403,-0.0385,-0.0399,-0.0417,-0.0445,-0.0456,-0.0476,-0.0508,-0.0533,-0.0537,-0.0561,-0.0581,-0.0575,-0.0588,-0.0588,-0.059,-0.0513,-0.0503,-0.0592,-0.0592,-0.0592,-0.0592,-0.0592,-0.0592,-0.039,-0.0429,-0.0426,-0.0469,-0.0474,-0.0504,-0.0514,-0.0526,-0.0535,-0.0571,-0.0592,-0.0593,-0.0603,-0.0627,-0.065,-0.0651,-0.0662,-0.0677,-0.0676,-0.0605,-0.0595,-0.0586,-0.0576,-0.0679,-0.0679,-0.075,-0.0751,-0.0752]},{"header":{"parameterUnit":"m.s-1","parameterCategory":1,"la1":30.2991,"la2":30.254,"lo1":-89.0895,"lo2":-89.0444,"dy":0.0017,"dx":0.0017,"nx":28,"ny":28,"refTime":"2025-04-15T09:00:00:Z","depth":0,"parameterNumber":3,"parameterNumberName":"V-component_of_WINDS"},"data":[0,0,0,0,0,0,0,0,0,0,0,0,0,0,0,0,0,0,0,0,0,0,0,0,0,0,0,0,0,0,0,0,0,0,0,0,0,0,0,0,0,0,0,0,0,0,0,0,0,0,0,0,0,0,0,0,0,0,-3.6191,-3.6191,0,-3.6189,-3.6189,-3.6189,-3.6077,-3.6074,-3.6072,-3.6069,-3.6066,-3.6069,-3.6072,0,0,0,0,0,0,0,0,0,0,0,0,0,-3.6096,-3.6099,-3.6191,-3.6191,-3.6191,-3.6189,-3.6189,-3.6189,-3.6078,-3.6074,-3.6071,-3.6067,-3.6066,-3.6069,-3.6072,0,0,0,0,0,0,0,0,0,0,0,0,0,-3.6121,-3.6099,-3.6191,-3.6135,-3.613,-3.6189,-3.6189,-3.6189,-3.6079,-3.6074,-3.607,-3.6066,-3.6065,-3.6068,-3.6072,-3.6185,0,0,-3.6085,-3.6086,0,0,0,0,0,0,0,0,-3.6119,-3.6124,-3.6143,-3.6139,-3.6134,-3.6129,-3.6155,-3.6188,-3.608,-3.6098,-3.6069,-3.6064,-3.6091,-3.6092,-3.6102,-3.6185,-3.6184,-3.6085,-3.6087,-3.6089,-3.609,0,0,0,0,0,0,0,-3.6118,-3.6124,-3.619,-3.6144,-3.6138,-3.611,-3.6108,-3.6161,-3.6119,-3.6096,-3.6088,-3.609,-3.6087,-3.6098,-3.6101,-3.6184,-3.6085,-3.6088,-3.6091,-3.6092,-3.636,-3.6364,0,0,0,0,0,0,-3.6124,-3.6123,-3.619,-3.619,-3.6116,-3.6115,-3.6114,-3.6135,-3.6118,-3.6111,-3.6093,-3.6084,-3.6093,-3.6096,-3.61,-3.6231,-3.6089,-3.6093,-3.6095,-3.6355,-3.6361,-3.6366,0,0,0,0,0,0,-3.6122,-3.6131,-3.619,-3.6154,-3.616,-3.6121,-3.6146,-3.6137,-3.6148,-3.6116,-3.6108,-3.6112,-3.609,-3.6095,-3.6165,-3.623,-3.6095,-3.6098,-3.635,-3.6357,-3.6364,-3.6494,0,0,0,0,0,0,-3.612,-3.6131,-3.6174,-3.6156,-3.6162,-3.6256,-3.615,-3.614,-3.6155,-3.6144,-3.6131,-3.6125,-3.6087,-3.6159,-3.6169,-3.6233,-3.6101,-3.6344,-3.6353,-3.6361,-3.6484,-3.6505,-3.6523,0,0,0,0,0,-3.6117,-3.621,-3.6176,-3.6185,-3.6215,-3.6259,-3.6263,-3.6217,-3.6161,-3.6203,-3.6183,-3.6126,-3.6221,-3.6167,-3.6177,-3.6243,-3.6339,-3.635,-3.6361,-3.6475,-3.6501,-3.6522,0,0,0,0,0,0,-3.6235,-3.6207,-3.6169,-3.6259,-3.6263,-3.624,-3.6292,-3.6246,-3.6265,-3.6253,-3.6195,-3.6193,-3.6273,-3.6264,-3.6206,-3.6351,-3.627,-3.6283,-3.6354,-3.6378,-3.6397,-3.6398,-3.6105,0,0,0,0,0,-3.6272,-3.6311,-3.6284,-3.6366,-3.637,-3.6331,-3.6349,-3.6314,-3.6315,-3.6316,-3.63,-3.6303,-3.6334,-3.6355,-3.6381,-3.6482,-3.6478,-3.6532,-3.6552,-3.6568,-3.658,-3.6633,-3.6657,-3.6401,-3.6401,-3.6401,0,0,-3.6348,-3.6337,-3.6365,-3.639,-3.6388,-3.643,-3.6333,-3.6381,-3.6412,-3.6323,-3.6388,-3.6377,-3.6377,-3.6463,-3.65,-3.6459,-3.665,-3.6581,-3.6594,-3.6598,-3.6647,-3.6671,-3.6693,-3.6408,-3.6407,-3.6406,0,0,-3.6508,-3.6504,-3.6572,-3.6573,-3.6572,-3.6546,-3.6563,-3.6548,-3.6537,-3.6602,-3.6537,-3.6572,-3.6625,-3.6628,-3.6637,-3.6799,-3.6747,-3.6809,-3.6911,-3.6963,-3.6984,-3.7001,-3.706,-3.7082,-3.6821,-3.6821,-3.6821,0,-3.6603,-3.6664,-3.6613,-3.6666,-3.6679,-3.6601,-3.667,-3.6673,-3.6681,-3.6691,-3.6645,-3.6711,-3.6705,-3.6791,-3.6831,-3.684,-3.6858,-3.681,-3.6985,-3.7002,-3.7018,-3.7073,-3.7095,-3.6829,-3.6828,-3.6827,-3.6826,0,-3.678,-3.6824,-3.6879,-3.689,-3.6908,-3.6969,-3.6928,-3.6953,-3.6916,-3.6895,-3.6962,-3.6952,-3.6976,-3.6993,-3.6957,-3.7075,-3.7049,-3.6995,-3.6912,-3.7051,-3.7102,-3.7122,-3.684,-3.6837,-3.6835,-3.6833,0,0,-3.7015,-3.6998,-3.7019,-3.7023,-3.7017,-3.7049,-3.7106,-3.713,-3.7153,-3.7161,-3.7208,-3.7255,-3.7205,-3.7215,-3.7178,-3.7225,-3.7355,-3.7164,-3.7163,-3.7201,-3.7485,-3.7527,-3.7552,-3.732,-3.7324,-3.7327,-3.7485,0,-3.7171,-3.7268,-3.7225,-3.7327,-3.7367,-3.7293,-3.7343,-3.7345,-3.7327,-3.7357,-3.7336,-3.7372,-3.7302,-3.7308,-3.735,-3.733,-3.7411,-3.7318,-3.7364,-3.7366,-3.7367,-3.7578,-3.7623,-3.7772,-3.7504,-3.7508,-3.751,0,-3.7366,-3.7383,-3.749,-3.7477,-3.7492,-3.7538,-3.7556,-3.7586,-3.7587,-3.757,-3.7582,-3.7535,-3.759,-3.7508,-3.7583,-3.7521,-3.7537,-3.753,-3.7535,-3.7538,-3.7447,-3.7588,-3.7818,-3.7842,-3.7541,-3.7539,-3.7536,0,-3.7528,-3.7578,-3.7648,-3.7653,-3.764,-3.7674,-3.767,-3.7666,-3.7683,-3.7699,-3.771,-3.7732,-3.7744,-3.7762,-3.7723,-3.7666,-3.7804,-3.7718,-3.7793,-3.7794,-3.7826,-3.7825,-3.8063,-3.7835,-3.7835,-3.7834,-3.7834,0,-3.7707,-3.7775,-3.7721,-3.7764,-3.7838,-3.7787,-3.7862,-3.785,-3.7847,-3.7887,-3.7824,-3.7863,-3.7808,-3.7841,-3.781,-3.7878,-3.7884,-3.7872,-3.7864,-3.7879,-3.7881,-3.7889,-3.7878,-3.784,-3.7839,-3.7838,-3.7837,0,-3.7901,-3.7867,-3.7939,-3.7921,-3.7918,-3.7974,-3.7958,-3.7997,-3.7975,-3.8026,-3.8035,-3.8,-3.8035,-3.7998,-3.8031,-3.801,-3.8102,-3.8077,-3.8102,-3.8096,-3.8173,-3.8166,-3.8426,-3.8458,-3.8208,-3.8211,-3.8213,0,-3.8018,-3.8069,-3.8057,-3.8079,-3.8079,-3.8116,-3.8133,-3.8085,-3.8106,-3.8111,-3.815,-3.818,-3.8202,-3.8263,-3.824,-3.8266,-3.8242,-3.8331,-3.8245,-3.8259,-3.8244,-3.8242,-3.8248,-3.8349,-3.8352,-3.8354,-3.8356,0,-3.823,-3.8211,-3.8239,-3.8261,-3.8284,-3.8299,-3.8309,-3.8331,-3.8281,-3.8308,-3.8344,-3.8361,-3.8395,-3.8427,-3.8445,-3.8441,-3.8391,-3.8383,-3.8402,-3.8418,-3.8431,-3.8427,-3.8151,-3.8378,-3.8376,-3.8374,-3.8373,-3.8372,-3.839,-3.8432,-3.843,-3.8464,-3.8466,-3.8478,-3.8514,-3.8497,-3.8526,-3.8551,-3.852,-3.8565,-3.8564,-3.8584,-3.8586,-3.862,-3.8582,-3.8609,-3.8616,-3.8624,-3.8636,-3.8425,-3.8623,-3.8622,-3.8622,-3.8621,-3.8621,0,-3.8599,-3.8595,-3.8626,-3.8643,-3.8669,-3.862,-3.8629,-3.8654,-3.8695,-3.8698,-3.8722,-3.8764,-3.8794,-3.8774,-3.88,-3.8832,-3.881,-3.884,-3.8838,-3.8838,-3.8668,-3.8649,-3.8858,-3.8858,-3.8858,-3.8858,-3.8858,-3.8858,-3.8712,-3.8781,-3.8762,-3.8832,-3.8826,-3.8871,-3.888,-3.889,-3.8893,-3.8943,-3.8969,-3.8955,-3.895,-3.8975,-3.9,-3.8994,-3.9007,-3.9046,-3.9031,-3.8873,-3.885,-3.8828,-3.881,-3.9049,-3.9049,-3.9199,-3.92,-3.9201]}]]